{"data":{"norad_id":38709,"intl_designator":"2012-039C","name":"EXACTVIEW-1 (ADS-1B)","alt_names":[],"object_type":"PAYLOAD","status":"ACTIVE","operator":null,"country":"CA","launch_date":"2012-07-22","launch_site_code":"TYMSC","launch_vehicle":null,"mission":null,"orbit_class":"UNKNOWN","rcs_meters":0.553,"size_class":null,"mass_kg":null,"dimensions":null,"purposes":["earth_obs"],"wikipedia_slug":null,"has_3d_model":false,"image_url":null,"decayed_at":null,"tle_current":{"epoch":"2026-09-19T07:53:40.169760Z","epoch_age_seconds":115622,"freshness":"FRESH","line1":"1 38709U 12039C   26262.32893715  .00000070  00000+0  49834-4 0  9996","line2":"2 38709  98.9876  21.8916 0009866 259.2150 100.7918 14.25006785736118","mean_motion":14.25006785,"eccentricity":0.0009866,"inclination_deg":98.9876,"raan_deg":21.8916,"arg_perigee_deg":259.215,"mean_anomaly_deg":100.7918,"bstar":4.9834e-5,"rev_number":73611,"period_min":101.05215042888,"perigee_km":801.37953550313,"apogee_km":815.5601481234,"semimajor_km":7186.6068418133,"source":"CELESTRAK","updated_at":"2026-09-20T09:00:33.893239Z"}}}